Location: Los Angeles
(34.0542°N, 118.2411°W)
Time: 19:38:17
(UTC-07:00)

Daily predictions for brighter satellites

Satellite Brightness Start Highest point End
(mag) Time Altitude Azimuth Time Altitude Azimuth Time Altitude Azimuth
Cosmos 972 4.4 20:28:11 10° S 20:33:07 64° ESE 20:37:57 10° NNE
Cosmos 1943 3.2 20:30:08 10° NNW 20:35:49 75° ENE 20:41:25 10° SSE
Cosmos 1626 Rocket 4.0 20:33:30 10° SSW 20:37:56 69° W 20:42:22 10° N
SJ-6B 3.5 20:34:54 10° S 20:38:43 57° W 20:42:40 10° NNW
Cosmos 1048 Rocket 4.2 20:38:13 10° S 20:43:19 52° ESE 20:48:30 10° NNE
Cosmos 1607 4.0 20:39:08 10° NNW 20:45:32 79° ENE 20:51:45 10° SSE
Meteor 2-11 Rocket 4.4 20:40:28 10° S 20:46:29 71° E 20:52:31 10° NNE
Cosmos 1400 Rocket 2.8 20:43:55 10° S 20:47:57 87° E 20:51:58 10° N
USA 215 3.7 20:43:50 10° ESE 20:50:09 53° NE 20:56:29 10° NNW
CZ-3 Stage 3 3.1 20:47:21 10° WSW 20:50:13 54° SSE 21:00:22 10° E
Resurs 1-3 3.6 20:47:57 10° SSE 20:52:19 76° ENE 20:56:42 10° N
Cosmos 1844 Rocket 3.2 20:48:48 10° S 20:53:59 38° ESE 20:59:10 10° NE
Centaur AC-125 3.6 20:52:59 10° SW 20:55:16 15° S 20:56:28 12° SSE
NOAA 11 4.2 20:50:50 10° SSE 20:56:12 67° ENE 21:01:34 10° N
Cosmos 1844 4.5 20:52:28 10° SSE 20:57:22 31° ESE 21:02:19 10° NE
Cosmos 1470 3.3 20:54:05 10° NNW 20:57:56 61° W 21:01:48 10° S
Cosmos 1812 Rocket 3.6 20:55:21 10° N 20:59:43 89° W 21:04:06 10° S
YAOGAN 6 4.0 20:59:12 10° SSW 21:02:29 36° W 21:05:46 10° NNW
Aureole 1 Rocket 2.5 21:00:30 10° SSW 21:03:32 75° WNW 21:07:06 10° NNE
USA 186 3.3 21:00:55 10° SSW 21:03:56 34° W 21:06:48 10° NNW
Cosmos 1953 Rocket 3.9 21:00:32 10° SSE 21:04:38 43° E 21:08:47 10° NNE
Spot 2 Rocket 3.5 21:00:14 10° SSE 21:05:14 70° ENE 21:10:16 10° N
SJ-11-01 4.4 21:02:19 10° S 21:07:03 79° WSW 21:11:49 10° NNW
Cosmos 1758 Rocket 3.6 21:05:29 10° S 21:09:53 65° E 21:14:16 10° NNE
Cosmos 1452 Rocket 3.5 21:04:44 10° NNW 21:10:03 89° ENE 21:15:09 11° SSE
Cosmos 1420 Rocket 3.9 21:05:10 10° NNW 21:10:22 78° ENE 21:15:03 13° SSE
Meteor 1-24 Rocket 4.1 21:05:35 10° SSE 21:11:23 53° E 21:17:13 10° NNE
OAO 3 Copernicus 4.3 21:07:43 10° W 21:12:48 81° SSW 21:16:52 16° ESE
Cosmos 1932 4.4 21:10:16 10° NNW 21:16:29 75° ENE 21:21:20 17° SE
SAR-Lupe-3 4.4 21:13:08 10° NNE 21:16:44 79° ESE 21:20:17 10° S
Resurs 01 Rocket 2.2 21:13:47 10° S 21:18:06 56° W 21:22:28 10° NNW
OAO 3 Rocket 3.3 21:16:45 10° W 21:21:44 79° N 21:26:26 11° E
SL-8 R/B 4.5 21:21:03 10° WSW 21:25:46 55° NW 21:30:32 10° NE
Meteor 2-5 Rocket 4.2 21:23:43 10° SSW 21:29:37 68° W 21:35:32 10° N
H-2A R/B 2.4 21:30:38 22° SE 21:33:51 52° ENE 21:39:04 10° N
Cosmos 1825 Rocket 4.4 21:30:19 10° SSW 21:34:40 52° W 21:39:01 10° N
Cosmos 921 Rocket 3.9 21:32:23 10° N 21:36:32 35° ENE 21:38:12 26° ESE
SPOT 5 4.3 21:36:21 20° ESE 21:38:22 26° ENE 21:42:37 10° NNE
Cosmos 1238 Rocket 2.4 21:37:14 18° SSW 21:39:15 62° W 21:42:13 10° N
Cosmos 1269 Rocket 4.5 21:34:26 10° SSW 21:39:41 65° WNW 21:44:58 10° N
In-Cosmos 22 4.5 21:35:32 10° SSW 21:41:00 69° W 21:46:39 10° N
Cosmos 494 Rocket 3.9 21:35:51 10° S 21:41:02 71° ESE 21:46:18 10° NNE
ATLAS 3B R/B 3.8 21:36:24 10° N 21:42:03 29° NE 21:45:53 17° E
USA 238 DEB 4.5 21:37:22 10° NNW 21:44:06 42° NE 21:48:21 22° ESE
Cosmos 1674 2.6 21:42:52 31° SSE 21:44:30 64° E 21:48:18 10° NNE
Lacrosse 5 4.0 21:40:14 10° W 21:44:35 28° NW 21:48:58 10° NNE
SL-08 RB Rocket 3.7 21:45:38 30° SSE 21:47:55 70° ENE 21:52:34 10° N
MetOp-B 4.1 21:46:03 26° SSE 21:49:07 74° ENE 21:54:28 10° N
Cosmos 1461 3.7 21:48:41 34° SE 21:49:19 36° ESE 21:53:37 10° NE
Cosmos 1244 Rocket 4.5 21:51:53 10° N 21:58:17 84° E 22:02:04 26° S
Centaur D-1AR AC-36 3.7 21:48:06 10° W 21:59:03 25° SSW 22:00:57 21° S
Cosmos 220 Rocket 3.9 21:58:55 43° SSE 22:00:00 60° ESE 22:04:10 10° NNE
Cosmos 1745 Rocket 4.5 21:55:01 10° N 22:00:59 43° E 22:03:09 32° SE
SEDSat Delta rocket 3.7 21:56:24 10° SW 22:01:13 38° SSE 22:01:13 38° SSE
DMSP B5D2-2 4.0 21:57:00 10° NNE 22:02:14 70° ESE 22:04:52 30° S
Cosmos 1726 2.5 21:59:29 10° N 22:03:06 46° E 22:03:12 46° E
ATLAS 2AS CENTAUR R/B 3.9 21:59:46 10° SW 22:07:16 52° NW 22:15:10 10° NNE
ERS-1 Rocket 2.9 22:06:45 39° SSE 22:08:40 83° ENE 22:13:43 10° N
Meteor 2-10 4.3 22:04:24 10° N 22:09:47 57° E 22:11:28 41° SE
Cosmos 2251 Rocket 3.4 22:11:51 35° S 22:14:08 71° ESE 22:19:27 10° NNE
Cosmos 1437 4.2 22:12:15 10° NNW 22:15:05 30° W 22:15:38 28° WSW
Landsat 7 4.2 22:16:59 44° E 22:17:41 47° ENE 22:22:14 10° N
Cosmos 2278 Rocket 2.1 22:16:23 37° S 22:18:33 65° ESE 22:24:11 10° NNE
Cosmos-2242 4.0 22:16:00 10° NNW 22:20:10 44° W 22:21:58 28° SW
Cosmos 2084 3.4 22:16:47 10° NW 22:20:33 57° WSW 22:20:45 56° SW
Aurora 2 Rocket 4.2 22:14:54 10° WSW 22:21:13 43° S 22:23:22 37° SE
Meteor 1-21 Rocket 4.2 22:19:01 39° S 22:21:16 73° E 22:27:04 10° NNE
ARGOS 4.1 22:18:08 21° SSW 22:21:21 43° W 22:26:30 10° NNW
S3M 4.0 22:19:53 27° S 22:23:34 85° W 22:30:00 10° N
CZ-2C R/B 4.1 22:25:43 33° E 22:26:52 37° ENE 22:32:06 10° N
SL-14 R/B 3.5 22:29:02 60° NE 22:29:02 60° NE 22:32:24 10° NNE
Helios 1A 2.8 22:32:09 85° SE 22:32:14 87° ENE 22:36:27 10° NNW
USA 215 4.1 22:30:40 28° SSW 22:33:11 37° SW 22:39:10 10° WNW
ATLAS 3B CENTAUR R/B 3.7 22:16:37 10° WSW 22:34:25 49° S 22:37:27 38° SE
Cosmos 1842 Rocket 3.4 22:31:23 10° N 22:35:45 89° E 22:35:49 86° SSE
Terra 2.2 22:37:00 48° ENE 22:37:05 48° ENE 22:41:40 10° N
COSMOS 2406 3.2 22:32:28 10° NNW 22:38:15 83° WSW 22:39:30 57° S
Helios 1B rocket 2.4 22:37:12 10° N 22:41:10 78° NW 22:41:10 78° NW
NOSS 2-2 (E) 4.1 22:44:22 44° NNE 22:44:22 44° NNE 22:47:17 10° NNE
NOSS 3-4 (A) 3.5 22:39:15 14° SW 22:44:37 78° WNW 22:50:58 10° NNE
NOSS 3-4 (C) 3.5 22:39:34 15° SW 22:44:42 79° WNW 22:51:03 10° NNE
CENTAUR R/B 4.3 22:43:08 10° NNW 22:50:07 31° NE 22:54:21 21° E
Cosmos 1375 Rocket 4.5 22:44:09 10° NNW 22:50:44 77° ENE 22:52:04 58° SE
ATLAS 5 CENTAUR R/B 1.8 22:57:11 69° N 22:57:11 69° N 23:01:27 10° NNE
APEX 4.4 22:55:26 10° NNW 22:57:31 38° NNW 22:57:31 38° NNW
Okean 3 Rocket 4.3 23:01:11 45° NNE 23:01:11 45° NNE 23:04:21 10° NNE
Cosmos 1626 3.6 23:02:05 34° N 23:02:05 34° N 23:04:16 10° N
Cosmos 2297 4.0 23:02:34 50° ENE 23:02:34 50° ENE 23:07:20 10° NNE
Cosmos 883 Rocket 4.5 23:00:23 52° SSW 23:01:55 76° W 23:08:10 10° N
Cosmos 2315 Rocket 3.9 23:04:20 66° S 23:05:17 85° E 23:11:39 10° N
OAO 3 Rocket 3.7 23:00:25 10° W 23:04:14 52° W 23:04:14 52° W
Cosmos 2221 3.1 23:05:27 10° N 23:08:55 54° NNW 23:08:55 54° NNW
Cosmos 2082 Rocket 3.1 23:05:27 10° N 23:10:43 37° ENE 23:10:56 37° ENE
Cosmos 1833 Rocket 3.3 23:08:00 10° N 23:13:22 44° ENE 23:13:23 44° ENE
H-2A R/B 4.3 23:11:14 12° WSW 23:13:32 16° W 23:16:42 10° NW
SPOT 5 4.2 23:15:36 31° WSW 23:16:12 31° W 23:20:50 10° NW
RESURS DK-1 4.1 23:20:00 28° NNE 23:20:00 28° NNE 23:22:02 10° NNE
CZ-2C R/B 2.6 23:16:07 10° N 23:21:22 81° NW 23:21:22 81° NW
Cosmos 1455 4.4 23:23:10 10° N 23:24:40 21° NNE 23:24:40 21° NNE
ATLAS 3B R/B 3.0 23:26:36 10° NW 23:32:52 48° WSW 23:33:08 47° WSW
EO 1 Delta rocket 4.3 23:29:16 10° N 23:35:32 77° WNW 23:35:32 77° WNW
NOSS 3-2 (A) 4.4 23:39:56 10° NW 23:47:29 52° WSW 23:48:27 50° SW
